Home   Weather   Grover Beach   Past weeks
Flag for USA

Past Weather in Grover Beach, California, USA — Yesterday and Last 2 Weeks

Now
57 °F

Low clouds.


Feels Like: 57 °F
Forecast: 66 / 57 °F
Wind: 3 mph from South

Location: San Luis Obispo County-Mc Chesney Field

Current Time: Jul 18, 2019 at 6:16:30 am

Latest Report: Jul 18, 2019 at 4:56 am


Visibility: 10 mi

Pressure: 29.95 "Hg

Humidity: 90%

Dew Point: 54 °F

Location of Grover BeachLocation

Past Weather in Grover Beach — Graph

°F

Grover Beach Temperature Yesterday

Maximum temperature yesterday: 73 °F (at 12:56 pm)
Minimum temperature yesterday: 53 °F (at 5:56 am)
Average temperature yesterday: 62 °F

High & Low Weather Summary for the Past Weeks

 TemperatureHumidityPressure
High90 °F (Jul 15, 10:56 am)100% (Jul 3, 7:26 am)30.08 "Hg (Jul 3, 7:26 am)
Low49 °F (Jul 3, 4:56 am)25% (Jul 15, 10:56 am)29.81 "Hg (Jul 12, 5:56 pm)
Average61 °F77%29.96 "Hg
* Reported Jul 3 4:56 am — Jul 18 4:56 am, Grover Beach. Weather by CustomWeather, © 2019

Note: Actual official high and low records may vary slightly from our data, if they occured in-between our weather recording intervals... More about our weather records

Advertising

Grover Beach Weather History for the Previous 24 Hours

Scroll right to see more
 ConditionsComfort  
Time TempWeatherWind HumidityBarometerVisibility
4:56 am
Thu, Jul 18
57 °FLow clouds.3 mph90%29.95 "Hg10 mi
3:56 am57 °FLow clouds.3 mph90%29.95 "Hg10 mi
2:56 am57 °FLow clouds.5 mph90%29.96 "Hg10 mi
1:56 am58 °FLow clouds.6 mph87%29.96 "Hg10 mi
12:56 am58 °FLow clouds.3 mph87%29.97 "Hg10 mi
11:56 pm
Wed, Jul 17
58 °FLow clouds.No wind87%29.96 "Hg10 mi
10:56 pm58 °FLow clouds.3 mph87%29.97 "Hg10 mi
9:56 pm57 °FPassing clouds.3 mph90%29.96 "Hg10 mi
8:56 pm58 °FClear.6 mph84%29.95 "Hg10 mi
7:56 pm61 °FSunny.8 mph78%29.95 "Hg10 mi
6:56 pm66 °FSunny.8 mph68%29.94 "Hg10 mi
5:56 pm69 °FSunny.9 mph61%29.94 "Hg10 mi
4:56 pm70 °FSunny.10 mph59%29.94 "Hg10 mi
3:56 pm72 °FSunny.9 mph55%29.95 "Hg10 mi
2:56 pm73 °FSunny.10 mph53%29.95 "Hg10 mi
1:56 pm73 °FSunny.10 mph53%29.96 "Hg10 mi
12:56 pm73 °FSunny.12 mph53%29.96 "Hg10 mi
11:56 am71 °FSunny.5 mph55%29.96 "Hg10 mi
10:56 am70 °FSunny.9 mph57%29.96 "Hg10 mi
9:56 am67 °FSunny.5 mph61%29.95 "Hg10 mi
8:56 am61 °FPassing clouds.No wind75%29.95 "Hg10 mi
7:56 am58 °FPassing clouds.3 mph84%29.93 "Hg10 mi
7:36 am57 °FScattered clouds.No wind87%29.94 "Hg10 mi
6:56 am54 °FScattered clouds.No wind93%29.92 "Hg9 mi
Weather by CustomWeather, © 2019

See weather overview